Regional Weather Roundup
Issued by NWS

Home | Current Version | Previous Version | Graphics & Text | Print | Product List | Glossary Off
Versions: 1 2 3 4 5 6 7 8 9 10 11 12 13 14 15 16 17 18 19 20 21 22 23 24 25 26 27 28 29 30 31 32 33 34 35 36 37 38 39 40 41 42 43 44 45 46 47 48 49 50

000
ASUS43 KTOP 031659
RWRKS

WEATHER ROUNDUP FOR KANSAS
NATIONAL WEATHER SERVICE GOODLAND KS
1200 PM CDT SUN MAY 03 2015

NOTE:  "FAIR" INDICATES FEW OR NO CLOUDS BELOW 12,000 FEET WITH NO
SIGNIFICANT WEATHER AND/OR OBSTRUCTIONS TO VISIBILITY.

KSZ001>006-013>018-027>032-041>047-031800-
NORTHWEST KANSAS

CITY           SKY/WX    TMP DP  RH WIND       PRES   REMARKS
GOODLAND       SUNNY     80  40  23 N12       29.89R
HAYS           SUNNY     82  45  26 CALM      29.82S
HILL CITY      SUNNY     83  48  29 S3        29.81S
RUSSELL        SUNNY     84  46  26 CALM      29.79S
$$

KSZ061>065-074>080-084>089-031800-
SOUTHWEST KANSAS

CITY           SKY/WX    TMP DP  RH WIND       PRES   REMARKS
DODGE CITY     MOSUNNY   82  42  24 CALM      29.85S
ELKHART          N/A     78  47  33 NW9         N/A
GARDEN CITY    MOSUNNY   79  43  27 VRB3      29.86R
GREAT BEND     SUNNY     79  52  38 S3        29.81F
LIBERAL        MOSUNNY   75  48  38 CALM      29.90S
$$

KSZ066>073-081>083-090>101-031800-
SOUTHEAST KANSAS

CITY           SKY/WX    TMP DP  RH WIND       PRES   REMARKS
CHANUTE        LGT RAIN  76  57  51 S15G26    29.91S
COFFEYVILLE    MOSUNNY   77  56  48 S21G33    29.93R
HUTCHINSON     MOSUNNY   79  55  43 S12       29.83F
MEDICINE LODGE   N/A     77  56  48 S12G22    29.85R
NEWTON         SUNNY     73  55  53 S17       29.87S
PARSONS        MOSUNNY   78  59  51 S15G28    29.93S
WICHITA INTL   MOSUNNY   77  56  48 S21       29.85F
WICHITA JABRA  MOSUNNY   76  56  49 S18       29.86S
WICHITA MCCONL MOSUNNY   77  57  50 S18G24    29.86F
WINFIELD       MOSUNNY   78  57  48 S20G29    29.90R
$$

KSZ007>012-019>026-033>040-048>060-102>105-031800-
NORTHEAST KANSAS

CITY           SKY/WX    TMP DP  RH WIND       PRES   REMARKS
CONCORDIA      MOSUNNY   81  52  36 SW8       29.78S
EMPORIA        MOSUNNY   77  56  48 S23G30    29.86R
LAWRENCE       MOSUNNY   79  57  46 S20G30    29.84F
MANHATTAN      MOSUNNY   79  59  50 SW13G18   29.81R
OLATHE IND     PTSUNNY   77  56  48 S21G31    29.87R
OLATHE EXE     PTSUNNY   76  57  51 S15G32    29.86S
SALINA         MOSUNNY   81  57  43 S14G20    29.81R
TOPEKA BILLARD MOSUNNY   77  57  50 S17G26    29.84S
TOPEKA FORBES  MOSUNNY   78  57  48 S20G29    29.84R
$$



USA.gov is the U.S. government's official web portal to all federal, state and local government web resources and services.